Mojave, CA

1:11 PM PDT on March 24, 2017 (GMT -0700)
Mojave

Weather History for KMHV - February, 2013

Change the Weather History Date:

Saturday, February 9, 2013

  Actual Average Record
Temperature  
Mean Temperature 40 °F -  
Max Temperature 46 °F 58 °F 75 °F (2017)
Min Temperature 35 °F 36 °F 27 °F (1974)
Degree Days  
Heating Degree Days 24    
Moisture  
Dew Point 22 °F    
Average Humidity 48    
Maximum Humidity 70    
Minimum Humidity 34    
Precipitation  
Precipitation 0.00 in - - ()
Sea Level Pressure  
Sea Level Pressure 29.92 in    
Wind  
Wind Speed 20 mph (West)    
Max Wind Speed 30 mph    
Max Gust Speed 40 mph    
Visibility 10 miles    
Events      
Averages and records for this station are not official NWS values.
T = Trace of Precipitation, MM = Missing Value Source: NWS Daily Summary

Daily Weather History Graph

Daily Weather History Graph

Search for Another Location

Airport or City:

Trip Planner

Search our weather history database for the weather conditions in past years. The results will help you decide how hot, cold, wet, or windy it might be!

Date:

Astronomy

Feb. 09, 2013 Rise Set
Actual Time 6:44 AM PST 5:29 PM PST
Civil Twilight 6:18 AM PST 5:55 PM PST
Nautical Twilight 5:48 AM PST 6:25 PM PST
Astronomical Twilight 5:18 AM PST 6:55 PM PST
Moon 5:59 AM PST (2/9) 5:16 PM PST (2/9)
Length of Visible Light 11h 37m
Length of Day
10h 45m
Waning Crescent, 0% of the Moon is Illuminated
Feb 9
Waning Crescent
Feb 9
New
Feb 17
First Quarter
Feb 25
Full
Mar 4
Last Quarter

Hourly Weather History & Observations

Time (PST) Temp. Windchill Dew Point Humidity Pressure Visibility Wind Dir Wind Speed Gust Speed Precip Events Conditions
12:15 AM 37.4 °F 25.2 °F 26.6 °F 65% 29.83 in 10.0 mi West 28.8 mph 34.5 mph N/A   Clear
12:35 AM 35.6 °F 23.4 °F 26.6 °F 70% 29.84 in 10.0 mi WNW 25.3 mph 35.7 mph N/A   Clear
12:55 AM 37.4 °F 26.1 °F 26.6 °F 65% 29.84 in 10.0 mi WNW 24.2 mph 36.8 mph N/A   Clear
1:15 AM 37.4 °F 28.2 °F 26.6 °F 65% 29.84 in 10.0 mi West 16.1 mph 40.3 mph N/A   Clear
1:35 AM 35.6 °F 24.8 °F 26.6 °F 70% 29.84 in 10.0 mi West 19.6 mph 32.2 mph N/A   Partly Cloudy
1:55 AM 37.4 °F 26.6 °F 26.6 °F 65% 29.84 in 10.0 mi NW 21.9 mph 36.8 mph N/A   Clear
2:15 AM 37.4 °F 26.1 °F 24.8 °F 60% 29.83 in 10.0 mi WNW 24.2 mph 39.1 mph N/A   Clear
2:35 AM 37.4 °F 25.9 °F 24.8 °F 60% 29.83 in 10.0 mi West 25.3 mph 33.4 mph N/A   Clear
2:55 AM 37.4 °F 26.4 °F 24.8 °F 60% 29.83 in 10.0 mi WNW 23.0 mph 34.5 mph N/A   Clear
3:15 AM 37.4 °F 26.6 °F 26.6 °F 65% 29.84 in 10.0 mi WNW 21.9 mph 31.1 mph N/A   Clear
3:35 AM 37.4 °F 26.1 °F 26.6 °F 65% 29.84 in 10.0 mi West 24.2 mph 31.1 mph N/A   Clear
3:55 AM 37.4 °F 27.5 °F 26.6 °F 65% 29.84 in 10.0 mi West 18.4 mph 29.9 mph N/A   Clear
4:15 AM 37.4 °F 30.8 °F 28.4 °F 70% 29.85 in 10.0 mi SSE 9.2 mph 28.8 mph N/A   Clear
4:35 AM 37.4 °F 30.3 °F 26.6 °F 65% 29.86 in 10.0 mi South 10.4 mph 17.3 mph N/A   Mostly Cloudy
4:55 AM 37.4 °F 32.1 °F 26.6 °F 65% 29.86 in 10.0 mi WNW 6.9 mph - N/A   Scattered Clouds
5:15 AM 39.2 °F 30.5 °F 23.0 °F 52% 29.86 in 10.0 mi WNW 16.1 mph 36.8 mph N/A   Clear
5:35 AM 37.4 °F 32.1 °F 24.8 °F 60% 29.87 in 10.0 mi North 6.9 mph - N/A   Partly Cloudy
5:55 AM 37.4 °F 29.8 °F 24.8 °F 60% 29.88 in 10.0 mi West 11.5 mph 18.4 mph N/A   Clear
6:15 AM 37.4 °F 26.9 °F 24.8 °F 60% 29.87 in 10.0 mi West 20.7 mph - N/A   Clear
6:35 AM 37.4 °F 25.9 °F 24.8 °F 60% 29.86 in 10.0 mi West 25.3 mph 35.7 mph N/A   Clear
6:55 AM 37.4 °F 26.1 °F 24.8 °F 60% 29.88 in 10.0 mi West 24.2 mph 32.2 mph N/A   Clear
7:15 AM 37.4 °F 27.5 °F 24.8 °F 60% 29.90 in 10.0 mi West 18.4 mph 24.2 mph N/A   Clear
7:35 AM 39.2 °F 34.2 °F 24.8 °F 56% 29.92 in 10.0 mi West 6.9 mph 18.4 mph N/A   Clear
7:55 AM 39.2 °F - 24.8 °F 56% 29.93 in 10.0 mi Calm Calm - N/A   Partly Cloudy
8:15 AM 41.0 °F 37.1 °F 21.2 °F 45% 29.93 in 10.0 mi NNW 5.8 mph 24.2 mph N/A   Clear
8:35 AM 41.0 °F 35.2 °F 23.0 °F 49% 29.94 in 10.0 mi NNW 9.2 mph 23.0 mph N/A   Clear
8:55 AM 41.0 °F 39.0 °F 23.0 °F 49% 29.95 in 10.0 mi NW 3.5 mph - N/A   Clear
9:15 AM 41.0 °F 34.3 °F 23.0 °F 49% 29.95 in 10.0 mi WNW 11.5 mph - N/A   Clear
9:35 AM 42.8 °F 36.2 °F 23.0 °F 46% 29.95 in 10.0 mi West 12.7 mph 17.3 mph N/A   Clear
9:55 AM 41.0 °F 32.2 °F 23.0 °F 49% 29.96 in 10.0 mi SSW 18.4 mph 25.3 mph N/A   Clear
10:15 AM 41.0 °F 31.6 °F 23.0 °F 49% 29.96 in 10.0 mi SW 20.7 mph 24.2 mph N/A   Clear
10:35 AM 42.8 °F 35.1 °F 21.2 °F 42% 29.96 in 10.0 mi SW 16.1 mph 26.5 mph N/A   Clear
10:55 AM 44.6 °F 37.2 °F 21.2 °F 39% 29.96 in 10.0 mi WSW 17.3 mph 27.6 mph N/A   Clear
11:15 AM 44.6 °F 36.4 °F 21.2 °F 39% 29.96 in 10.0 mi SW 20.7 mph 28.8 mph N/A   Clear
11:35 AM 44.6 °F 36.1 °F 21.2 °F 39% 29.95 in 10.0 mi SW 21.9 mph 31.1 mph N/A   Clear
11:55 AM 44.6 °F 35.9 °F 23.0 °F 43% 29.95 in 10.0 mi WSW 23.0 mph 31.1 mph N/A   Clear
12:15 PM 46.4 °F 38.5 °F 23.0 °F 40% 29.94 in 10.0 mi WSW 21.9 mph 28.8 mph N/A   Clear
12:35 PM 46.4 °F 38.1 °F 23.0 °F 40% 29.94 in 10.0 mi West 24.2 mph 29.9 mph N/A   Clear
12:55 PM 46.4 °F 38.1 °F 23.0 °F 40% 29.94 in 10.0 mi West 24.2 mph 33.4 mph N/A   Clear
1:15 PM 46.4 °F 37.7 °F 23.0 °F 40% 29.94 in 10.0 mi West 26.5 mph 33.4 mph N/A   Clear
1:35 PM 46.4 °F 38.1 °F 23.0 °F 40% 29.94 in 10.0 mi West 24.2 mph 33.4 mph N/A   Clear
1:55 PM 46.4 °F 37.4 °F 23.0 °F 40% 29.94 in 10.0 mi West 28.8 mph - N/A   Clear
2:15 PM 46.4 °F 38.1 °F 23.0 °F 40% 29.94 in 10.0 mi West 24.2 mph 31.1 mph N/A   Clear
2:55 PM 46.4 °F 37.9 °F 21.2 °F 37% 29.93 in 10.0 mi West 25.3 mph 32.2 mph N/A   Clear
3:15 PM 46.4 °F 38.3 °F 19.4 °F 34% 29.93 in 10.0 mi West 23.0 mph 28.8 mph N/A   Clear
3:35 PM 46.4 °F 37.7 °F 21.2 °F 37% 29.93 in 10.0 mi West 26.5 mph 29.9 mph N/A   Clear
3:55 PM 44.6 °F 34.9 °F 23.0 °F 43% 29.93 in 10.0 mi West 28.8 mph 33.4 mph N/A   Clear
4:15 PM 44.6 °F 36.4 °F 19.4 °F 37% 29.93 in 10.0 mi WSW 20.7 mph - N/A   Clear
4:35 PM 44.6 °F 35.1 °F 17.6 °F 34% 29.92 in 10.0 mi West 27.6 mph - N/A   Clear
4:55 PM 44.6 °F 35.1 °F 19.4 °F 37% 29.92 in 10.0 mi West 27.6 mph 31.1 mph N/A   Clear
5:15 PM 42.8 °F 32.9 °F 19.4 °F 39% 29.94 in 10.0 mi West 26.5 mph - N/A   Clear
5:35 PM 41.0 °F 29.8 °F 19.4 °F 42% 29.93 in 10.0 mi West 29.9 mph 34.5 mph N/A   Clear
5:55 PM 41.0 °F 30.9 °F 15.8 °F 36% 29.94 in 10.0 mi West 24.2 mph 36.8 mph N/A   Clear
6:15 PM 39.2 °F 30.8 °F 19.4 °F 45% 29.96 in 10.0 mi WSW 15.0 mph 24.2 mph N/A   Clear
6:35 PM 39.2 °F 29.3 °F 17.6 °F 42% 29.95 in 10.0 mi West 20.7 mph 31.1 mph N/A   Clear
6:55 PM 39.2 °F 29.8 °F 17.6 °F 42% 29.96 in 10.0 mi WSW 18.4 mph 32.2 mph N/A   Clear
7:15 PM 39.2 °F 30.2 °F 17.6 °F 42% 29.96 in 10.0 mi West 17.3 mph 25.3 mph N/A   Clear
7:35 PM 39.2 °F 27.8 °F 17.6 °F 42% 29.95 in 10.0 mi West 27.6 mph 33.4 mph N/A   Clear
7:55 PM 39.2 °F 28.7 °F 17.6 °F 42% 29.96 in 10.0 mi WNW 23.0 mph 28.8 mph N/A   Clear
8:15 PM 39.2 °F 30.5 °F 15.8 °F 39% 29.97 in 10.0 mi WNW 16.1 mph - N/A   Clear
8:35 PM 39.2 °F 31.2 °F 15.8 °F 39% 29.97 in 10.0 mi WNW 13.8 mph - N/A   Clear
8:55 PM 39.2 °F 30.8 °F 15.8 °F 39% 29.98 in 10.0 mi WNW 15.0 mph 21.9 mph N/A   Clear
9:15 PM 39.2 °F 30.5 °F 15.8 °F 39% 29.99 in 10.0 mi WNW 16.1 mph 20.7 mph N/A   Clear
9:35 PM 39.2 °F 29.8 °F 15.8 °F 39% 29.99 in 10.0 mi WNW 18.4 mph 21.9 mph N/A   Clear
9:55 PM 39.2 °F 30.5 °F 15.8 °F 39% 29.99 in 10.0 mi WNW 16.1 mph 21.9 mph N/A   Clear
10:15 PM 39.2 °F 30.8 °F 15.8 °F 39% 29.99 in 10.0 mi WNW 15.0 mph 19.6 mph N/A   Clear
10:35 PM 39.2 °F 32.0 °F 14.0 °F 36% 29.99 in 10.0 mi NW 11.5 mph - N/A   Clear
10:55 PM 37.4 °F 30.3 °F 14.0 °F 38% 30.00 in 10.0 mi NW 10.4 mph - N/A   Clear
11:15 PM 39.2 °F 32.0 °F 14.0 °F 36% 30.01 in 10.0 mi NW 11.5 mph - N/A   Clear
11:35 PM 37.4 °F 31.4 °F 14.0 °F 38% 30.01 in 10.0 mi NNW 8.1 mph - N/A   Clear
11:55 PM 35.6 °F 30.7 °F 14.0 °F 41% 30.02 in 10.0 mi North 5.8 mph - N/A   Clear